Regional Weather Roundup
Issued by NWS

Home | Current Version | Previous Version | Text Only | Print | Product List | Glossary Off
Versions: 1 2 3 4 5 6 7 8 9 10 11 12 13 14 15 16 17 18 19 20 21 22 23 24 25 26 27 28 29 30 31 32 33 34 35 36 37 38 39 40 41 42 43 44 45 46 47 48 49 50

000
ASUS45 KTFX 272319
RWRMT
MONTANA HOURLY WEATHER ROUNDUP
NATIONAL WEATHER SERVICE GREAT FALLS MT
419 PM MST FRI FEB 27 2015

NOTE: "FAIR" INDICATES FEW OR NO CLOUDS BELOW 12000 FEET WITH NO
SIGNIFICANT WEATHER AND/OR OBSTRUCTIONS TO VISIBILITY.

* THESE STATIONS ARE NOT UNDER NWS QUALITY CONTROL. THEY DO NOT
   REPORT WEATHER SUCH AS PRECIPITATION OR FOG.

MTZ001>007-043-280000-
WEST OF THE DIVIDE
CITY           SKY/WX    TMP DP  RH WIND       PRES   REMARKS
KALISPELL      PTCLDY    36  10  34 NE22G28   29.90S WCI  25
MISSOULA       CLOUDY    37  10  33 NE15      29.83S WCI  28
BUTTE          CLOUDY    28  12  51 E9        29.77R WCI  19
MULLAN PASS    PTCLDY    25  16  69 CALM      29.71S
* ANACONDA     PTSUNNY   27  12  53 N11        N/A   WCI  17
* ESSEX        N/A       25   6  44 E8G17      N/A   WCI  16
* EUREKA APT   PTCLDY    37   9  31 N10       29.94S WCI  30
* HAMILTON APT PTCLDY    37  14  39 N8        29.77S WCI  31
* LIBBY APT    PTCLDY    39  10  30 E9        29.89R WCI  33
* LINCOLN      N/A       22   7  52 NE15G25    N/A   WCI   9
* LOOKOUT PASS N/A       34  16  48 NW6G12     N/A   WCI  29
* POLSON       N/A       36  12  37 N3G8       N/A
* RONAN APT    PTSUNNY   37  18  46 NW10       N/A   WCI  30
* SEELEY LAKE  N/A       32  13  45 SE4G10     N/A
* THOMP F APT  PTCLDY    32  15  49 S2G10      N/A
* YAAK HILL    N/A       41  17  38 N3G9       N/A
$$

MTZ008-052>055-280000-
SOUTHWEST MONTANA
CITY           SKY/WX    TMP DP  RH WIND       PRES   REMARKS
BOZEMAN        CLOUDY    28  10  47 S6        29.86S WCI  21
DILLON         PTSUNNY   30  10  43 NE17G25   29.74F WCI  18
* W YELLOWSTON PTCLDY    29   4  34 N3         N/A
* THREE FORKS  PTCLDY    28  12  51 NW11G23    N/A   WCI  18
* BOULDER HILL N/A       16   6  64 N16        N/A   WCI   1
* MONIDA PASS  N/A       28   9  45 NE6        N/A   WCI  21
* RAYNOLDS PAS N/A       17 -22  16 N11G16     N/A   WCI   4
* WHITEHALL    N/A       29  12  49 E9G21      N/A   WCI  21
* WISE RIVER   N/A       30   8  39 SE11G25    N/A   WCI  21
$$

MTZ009>010-012-014-046-048-049-054-280000-
EAST SLOPES AND CENTRAL MONTANA
CITY           SKY/WX    TMP DP  RH WIND       PRES   REMARKS
CUT BANK       LGT SNOW  18  10  71 N16       30.03R VSB 2    WCI   3
GREAT FALLS    LGT SNOW  19  12  74 NW8       30.02R WCI   9
HELENA         PTSUNNY   25  10  53 N20       29.97R WCI  11
MALMSTROM AFB  LGT SNOW  19  12  74 N9        30.04R WCI   8
* CONRAD       PTCLDY    19  12  74 NW15G21    N/A   WCI   5
* DEARBORN     N/A       20  11  68 N/A        N/A
* EAST GLACIER N/A       13   6  73 NE18       N/A   WCI  -4
* MONARCH      N/A       10   5  80 NW15       N/A   WCI  -7
* PENDROY      N/A       15  11  84 N15G24     N/A
* ROGERS PASS  N/A       11   7  84 S4G12      N/A
* SWEET GRASS  N/A       15  11  84 VRB15G20    N/A
* WHITE SULPH  N/A       17   6  62 NW15G22    N/A   WCI   2
$$

MTZ011-013-016-021-035-040-045-047-050-051-280000-
NORTH CENTRAL MONTANA
CITY           SKY/WX    TMP DP  RH WIND       PRES   REMARKS
HAVRE          PTSUNNY   23   7  50 NW17G22   30.05R WCI   9
LEWISTOWN      CLOUDY    16   9  74 NW13      29.96R WCI   2
* N BAR RANCH  SUNNY     16   5  62 NW21      29.91R WCI  -1
* CHINOOK      SUNNY     25   3  38 N8        30.05S WCI  16
* FORT BENTON  PTCLDY    25  12  58 CALM      30.07S
* CHESTER      N/A       22  10  60 NW11G18    N/A   WCI  11
* DENTON       N/A       18   9  68 NW16       N/A   WCI   3
* GEYSER       N/A       14   8  77 W21G27     N/A   WCI  -4
* JUDITH GAP   N/A       13   8  80 N26        N/A   WCI  -7
* LOMA         N/A       22  11  62 W6         N/A   WCI  14
$$

MTZ017>020-022>027-061-062-280000-
NORTHEAST MONTANA
CITY           SKY/WX    TMP DP  RH WIND       PRES   REMARKS
GLASGOW        PTSUNNY   21   7  55 NW9       30.02S WCI  11
GLENDIVE       SUNNY     28   7  41 SW12      30.00F WCI  18
JORDAN         PTCLDY    25  10  53 NW12      30.00R WCI  14
SIDNEY         SUNNY     28   5  37 S7        30.06F WCI  21
WOLF POINT     PTSUNNY   28   5  37 W3        30.03F
* BEAVER HILL  N/A       24   7  48 S12G22     N/A   WCI  13
* CIRCLE       N/A       26   9  48 W1G10      N/A
* LINDSAY DVD  N/A       24   5  44 S8G15      N/A   WCI  15
* NAVAJO       N/A       21   4  48 SW9        N/A   WCI  11
* POPLAR APT   PTSUNNY   27   7  42 SW5       30.04F WCI  21
* SACO         N/A       19   3  49 NW9        N/A   WCI   8
* SCOBEY APT   PTCLDY    23   0  36 SW6        N/A   WCI  16
$$

MTZ028>042-056>058-280000-
SOUTHCENTRAL AND SOUTHEAST MONTANA
CITY           SKY/WX    TMP DP  RH WIND       PRES   REMARKS
BAKER          SUNNY     25   9  50 SE13      29.99F WCI  13
BILLINGS       PTCLDY    28   9  45 VRB3      29.91R
LIVINGSTON     CLOUDY    27  12  53 E13       29.84R WCI  16
MILES CITY     SUNNY     25  10  53 S9        29.99S WCI  16
* BIG TIMBER A PTCLDY    25  12  58 N10       29.88R WCI  15
* FORSYTH APT  PTCLDY    27  10  49 CALM      29.99R
* LAUREL APT   PTCLDY    28   7  41 N/A        N/A
* ROUNDUP APT  PTCLDY    23   1  38 N9         N/A   WCI  13
* ALZADA       N/A       23  10  57 E6         N/A   WCI  16
* HYSHAM       N/A       22   6  50 SE4        N/A
* LAME DEER    N/A       18  12  77 N4         N/A
* REED POINT   N/A       28  12  51 N/A        N/A
$$

REGIONAL REPORTS...DAKOTAS
CITY           SKY/WX    TMP DP  RH WIND       PRES   REMARKS
WILLISTON      PTCLDY    27   3  35 SE10      30.05F WCI  18
DICKINSON      SUNNY     27   5  39 S20       30.02F WCI  13
BEACH          SUNNY     25   5  42 S14       30.01F WCI  13
CROSBY         SUNNY     18   5  57 S9        30.09F WCI   7
TIOGA          SUNNY     19   5  54 SE10      30.09F WCI   8
WATFORD CITY   SUNNY     25   7  46 S14       30.03F WCI  13
BISMARCK       SUNNY     19   5  54 SE14      30.21F WCI   5
GRAND FORKS    SUNNY     18   1  47 SW12      30.36F WCI   5
FARGO          PTCLDY    18   1  47 SW10      30.40F WCI   6
BUFFALO SD     SUNNY     27  10  49 S16       29.92F WCI  15
RAPID CITY     CLOUDY    23  10  57 S25       30.02F WCI   7
$$

REGIONAL REPORTS...WYOMING/IDAHO/WASHINGTON
CITY           SKY/WX    TMP DP  RH WIND       PRES   REMARKS
GILLETTE       SUNNY     23  10  57 S16       29.86F WCI  10
SHERIDAN       PTSUNNY   18   5  57 CALM      29.90S
CODY           PTSUNNY   21  10  62 CALM      29.83R
YELLOWSTONE LA PTSUNNY   19  10  68 VRB5      29.69F WCI  12
SALMON         PTSUNNY   37  19  48 CALM      29.71S
MULLAN PASS    PTCLDY    25  16  69 CALM      29.71S
SAND POINT     PTCLDY    43  21  42 N20G26    29.84R
SPOKANE        PTSUNNY   46  23  40 NE20      29.76S
$$

REGIONAL REPORTS...ALBERTA
CITY           SKY/WX    TMP DP  RH WIND       PRES   REMARKS
CALGARY        N/A       18   9  68 N14       30.08S WCI   4
LETHBRIDGE     LGT SNOW  19  12  74 NW13      30.10R WCI   6
MEDICINE HAT   LGT SNOW  18  12  77 NW9       30.12R VSB 2 1/2 WCI   7
EDMONTON       LGT SNOW  16   7  67 NW10      30.18S WCI   4
WATERTON GATE  N/A       16  10  77 E7         N/A   WCI   6
CARDSTON       N/A       18  16  92 N8         N/A   WCI   8
MILK RIVER     N/A       18  14  84 N14        N/A   WCI   4
$$

REGIONAL REPORTS...SASKATCHEWAN
CITY           SKY/WX    TMP DP  RH WIND       PRES   REMARKS
SWIFT CURRENT  SUNNY     12   3  67 N10       30.04R WCI  -1
MOOSE JAW      PTSUNNY    9   0  66 W6        30.10S WCI  -1
REGINA         CLOUDY     5  -2  72 SE6       30.10S WCI  -6
VAL MARIE      N/A       19  -2  39 N13        N/A   WCI   6
ASSINIBOIA     N/A       10   0  64 NW10       N/A   WCI  -4
CORONACH       N/A       19   5  54 NW13       N/A   WCI   6

$$



USA.gov is the U.S. government's official web portal to all federal, state and local government web resources and services.